TimePST,TemperatureF,Dew PointF,Humidity,Sea Level PressureIn,VisibilityMPH,Wind Direction,Wind SpeedMPH,Gust SpeedMPH,PrecipitationIn,Events,Conditions,WindDirDegrees,DateUTC
12:00 AM,39.7,37.8,93,29.44,-9999.0,South,16.1,-,N/A,,Unknown,180,2013-02-21 08:00:00
1:00 AM,39.4,35.8,87,29.45,-9999.0,SW,5.8,-,N/A,,Unknown,230,2013-02-21 09:00:00
2:00 AM,40.8,37.2,87,29.47,-9999.0,SSW,8.1,-,N/A,,Unknown,210,2013-02-21 10:00:00
3:00 AM,39.6,36.1,88,29.49,-9999.0,NNE,2.3,-,N/A,,Unknown,20,2013-02-21 11:00:00
4:00 AM,40,37,84,29.52,,SW,9.2,,,,,230,2013-02-21 12:00:00
4:00 AM,39.6,36.9,90,29.52,-9999.0,SW,9.2,-,N/A,,Unknown,230,2013-02-21 12:00:00
5:00 AM,39.4,36.9,91,29.56,-9999.0,West,8.1,-,N/A,,Unknown,260,2013-02-21 13:00:00
6:00 AM,39.6,35.8,86,29.58,-9999.0,WSW,8.1,-,N/A,,Unknown,250,2013-02-21 14:00:00
7:00 AM,39.6,35.8,86,29.62,-9999.0,West,6.9,-,N/A,,Unknown,260,2013-02-21 15:00:00
8:00 AM,39.2,35.8,88,29.64,-9999.0,WSW,5.8,-,N/A,,Unknown,250,2013-02-21 16:00:00
9:00 AM,39.7,36.5,88,29.65,-9999.0,SSW,6.9,-,N/A,,Unknown,200,2013-02-21 17:00:00
10:00 AM,40,34,72,29.68,,WSW,8.1,,,,,240,2013-02-21 18:00:00
10:00 AM,40.5,34.0,78,29.68,-9999.0,WSW,8.1,-,N/A,,Unknown,240,2013-02-21 18:00:00
11:00 AM,41.0,34.2,77,29.69,-9999.0,SSW,5.8,-,N/A,,Unknown,200,2013-02-21 19:00:00
12:00 PM,40.8,33.6,76,29.70,-9999.0,SSW,6.9,-,N/A,,Unknown,210,2013-02-21 20:00:00
1:00 PM,40.3,34.7,80,29.70,-9999.0,South,10.4,-,N/A,,Unknown,190,2013-02-21 21:00:00
2:00 PM,40.1,34.5,80,29.70,-9999.0,South,9.2,-,N/A,,Unknown,170,2013-02-21 22:00:00
3:00 PM,39.9,36.0,86,29.68,-9999.0,South,17.3,-,N/A,,Unknown,180,2013-02-21 23:00:00
4:00 PM,40,37,83,29.65,,South,23.0,,,,,180,2013-02-22 00:00:00
4:00 PM,39.9,36.7,88,29.65,-9999.0,South,23.0,-,N/A,,Unknown,180,2013-02-22 00:00:00
5:00 PM,40.1,36.3,86,29.61,-9999.0,South,21.9,-,N/A,,Unknown,180,2013-02-22 01:00:00
6:00 PM,39.7,36.9,89,29.53,-9999.0,SSE,31.1,-,N/A,,Unknown,160,2013-02-22 02:00:00
7:00 PM,39.9,37.4,91,29.47,-9999.0,SSE,32.2,-,N/A,,Unknown,160,2013-02-22 03:00:00
8:00 PM,40.6,37.8,89,29.42,-9999.0,South,26.5,-,N/A,,Unknown,170,2013-02-22 04:00:00
9:00 PM,40.6,38.5,92,29.38,-9999.0,South,18.4,-,N/A,,Unknown,170,2013-02-22 05:00:00
10:00 PM,42,40,88,29.31,,South,25.3,,,,,170,2013-02-22 06:00:00
10:00 PM,41.9,39.7,92,29.31,-9999.0,South,25.3,-,N/A,,Unknown,170,2013-02-22 06:00:00
11:00 PM,44.6,40.6,86,29.31,-9999.0,South,20.7,-,N/A,,Unknown,180,2013-02-22 07:00:00